Weather History for LIRQ - September, 2013

Change the Weather History Date:

Monday, September 2, 2013

  Actual Average Record
Temperature  
Mean Temperature 75 °F -  
Max Temperature 86 °F 79 °F 91 °F (1998)
Min Temperature 64 °F 57 °F 51 °F (2010)
Cooling Degree Days 10    
Growing Degree Days 25 (Base 50)    
Moisture  
Dew Point 57 °F    
Average Humidity 54    
Maximum Humidity 83    
Minimum Humidity 29    
Precipitation  
Precipitation 0.00 in 0.10 in - ()
Sea Level Pressure  
Sea Level Pressure 30.12 in    
Wind  
Wind Speed 3 mph ()    
Max Wind Speed 9 mph    
Max Gust Speed -    
Visibility 6.2 miles    
Events      
Averages and records for this station are not official NWS values.
T = Trace of Precipitation, MM = Missing Value Source: Averaged Metar Reports

Daily Weather History Graph

Daily Weather History Graph

Search for Another Location

Airport or City:

Trip Planner

Search our weather history database for the weather conditions in past years. The results will help you decide how hot, cold, wet, or windy it might be!

Date:

Astronomy

Sep. 02, 2013 Rise Set
Actual Time 6:39 AM CEST 7:49 PM CEST
Civil Twilight 6:10 AM CEST 8:18 PM CEST
Nautical Twilight 5:34 AM CEST 8:53 PM CEST
Astronomical Twilight 4:57 AM CEST 9:31 PM CEST
Moon 3:37 AM CEST (9/2) 5:55 PM CEST (9/2)
Length of Visible Light 14h 08m
Length of Day
13h 09m
Waning Crescent, 9% of the Moon is Illuminated
Sep 2
Waning Crescent
Sep 5
New
Sep 12
First Quarter
Sep 19
Full
Sep 27
Last Quarter

Hourly Weather History & Observations

Time (CEST) Temp. Heat Index Dew Point Humidity Pressure Visibility Wind Dir Wind Speed Gust Speed Precip Events Conditions
12:20 AM 71.6 °F - 57.2 °F 60% 30.09 in - Variable 1.2 mph - N/A   Clear
12:50 AM 69.8 °F - 57.2 °F 64% 30.09 in - Variable 2.3 mph - N/A   Clear
1:20 AM 66.2 °F - 57.2 °F 73% 30.09 in - Variable 2.3 mph - N/A   Clear
1:50 AM 68.0 °F - 57.2 °F 68% 30.09 in - Variable 1.2 mph - N/A   Clear
2:20 AM 68.0 °F - 57.2 °F 68% 30.09 in - Variable 2.3 mph - N/A   Clear
2:50 AM 66.2 °F - 57.2 °F 73% 30.09 in - Calm Calm - N/A   Clear
3:20 AM 66.2 °F - 57.2 °F 73% 30.09 in - East 2.3 mph - N/A   Clear
3:50 AM 64.4 °F - 57.2 °F 77% 30.09 in - Variable 1.2 mph - N/A   Clear
4:20 AM 64.4 °F - 57.2 °F 77% 30.09 in - Variable 1.2 mph - N/A   Clear
4:50 AM 66.2 °F - 57.2 °F 73% 30.09 in - SSE 3.5 mph - N/A   Clear
5:20 AM 64.4 °F - 57.2 °F 77% 30.09 in - Variable 1.2 mph - N/A   Clear
5:50 AM 64.4 °F - 57.2 °F 77% 30.09 in 6.2 mi Variable 1.2 mph - N/A   Partly Cloudy
6:20 AM 64.4 °F - 57.2 °F 77% 30.09 in 6.2 mi Calm Calm - N/A   Partly Cloudy
6:50 AM 64.4 °F - 59.0 °F 83% 30.09 in 6.2 mi Variable 1.2 mph - N/A   Partly Cloudy
7:20 AM 66.2 °F - 57.2 °F 73% 30.12 in 6.2 mi Variable 1.2 mph - N/A   Partly Cloudy
7:50 AM 66.2 °F - 57.2 °F 73% 30.12 in 6.2 mi Calm Calm - N/A   Partly Cloudy
8:20 AM 68.0 °F - 57.2 °F 68% 30.12 in 6.2 mi South 2.3 mph - N/A   Partly Cloudy
8:50 AM 69.8 °F - 57.2 °F 64% 30.12 in 6.2 mi Variable 2.3 mph - N/A   Scattered Clouds
9:20 AM 73.4 °F - 57.2 °F 57% 30.12 in - Calm Calm - N/A   Clear
9:50 AM 77.0 °F - 57.2 °F 50% 30.15 in - Variable 2.3 mph - N/A   Clear
10:20 AM 78.8 °F - 55.4 °F 44% 30.15 in - Variable 2.3 mph - N/A   Clear
10:50 AM 80.6 °F 80.8 °F 57.2 °F 45% 30.15 in - Variable 2.3 mph - N/A   Clear
11:20 AM 80.6 °F 80.5 °F 55.4 °F 42% 30.15 in - Variable 2.3 mph - N/A   Clear
11:50 AM 84.2 °F 83.0 °F 55.4 °F 37% 30.15 in - Variable 2.3 mph - N/A   Clear
12:20 PM 86.0 °F 84.2 °F 53.6 °F 33% 30.12 in - Variable 2.3 mph - N/A   Clear
12:50 PM 86.0 °F - 50.0 °F 29% 30.12 in 6.2 mi Variable 3.5 mph - N/A   Partly Cloudy
1:20 PM 86.0 °F 84.5 °F 55.4 °F 35% 30.12 in 6.2 mi Variable 3.5 mph - N/A   Partly Cloudy
1:50 PM 86.0 °F 84.5 °F 55.4 °F 35% 30.12 in 6.2 mi Variable 3.5 mph - N/A   Partly Cloudy
2:20 PM 84.2 °F 83.0 °F 55.4 °F 37% 30.12 in 6.2 mi ENE 9.2 mph - N/A   Partly Cloudy
2:50 PM 84.2 °F 83.0 °F 55.4 °F 37% 30.09 in 6.2 mi NNE 8.1 mph - N/A   Partly Cloudy
3:20 PM 86.0 °F 84.9 °F 57.2 °F 37% 30.09 in 6.2 mi NNE 9.2 mph - N/A   Partly Cloudy
3:50 PM 86.0 °F 84.9 °F 57.2 °F 37% 30.09 in 6.2 mi NNE 5.8 mph - N/A   Partly Cloudy
4:20 PM 84.2 °F 83.8 °F 59.0 °F 42% 30.09 in 6.2 mi North 9.2 mph - N/A   Scattered Clouds
4:50 PM 84.2 °F 83.8 °F 59.0 °F 42% 30.09 in 6.2 mi NNW 8.1 mph - N/A   Scattered Clouds
5:20 PM 86.0 °F 84.9 °F 57.2 °F 37% 30.09 in 6.2 mi North 8.1 mph - N/A   Scattered Clouds
5:50 PM 84.2 °F 83.5 °F 57.2 °F 40% 30.09 in 6.2 mi North 9.2 mph - N/A   Partly Cloudy
6:20 PM 84.2 °F 83.8 °F 59.0 °F 42% 30.09 in - North 9.2 mph - N/A   Clear
6:50 PM 82.4 °F 82.5 °F 59.0 °F 45% 30.09 in - North 8.1 mph - N/A   Clear
7:20 PM 80.6 °F 81.1 °F 59.0 °F 48% 30.12 in - NNE 5.8 mph - N/A   Clear
7:50 PM 80.6 °F 80.8 °F 57.2 °F 45% 30.12 in - NNE 5.8 mph - N/A   Clear
8:20 PM 80.6 °F 80.8 °F 57.2 °F 45% 30.12 in - Variable 2.3 mph - N/A   Clear
8:50 PM 78.8 °F - 57.2 °F 47% 30.15 in - SW 4.6 mph - N/A   Clear
9:20 PM 78.8 °F - 57.2 °F 47% 30.15 in - Variable 2.3 mph - N/A   Clear
9:50 PM 77.0 °F - 57.2 °F 50% 30.15 in - Variable 3.5 mph - N/A   Clear
10:20 PM 77.0 °F - 59.0 °F 54% 30.18 in - NNE 3.5 mph - N/A   Clear
10:50 PM 77.0 °F - 59.0 °F 54% 30.18 in - ENE 4.6 mph - N/A   Clear
11:20 PM 73.4 °F - 59.0 °F 61% 30.18 in - Calm Calm - N/A   Clear
11:50 PM 71.6 °F - 59.0 °F 64% 30.18 in - South 3.5 mph - N/A   Clear